Tracking 17844 objects as of 24-August-2016
HD Live streaming from Space Station
objects crossing your sky now

SL-14 R/B

Track SL-14 R/B now!
10-day predictions


NORAD ID: 15370
Int'l Code: 1984-111B
Perigee: 611.4 km
Apogee: 639.1 km
Inclination: 82.5 °
Period: 97.1 minutes
Semi major axis: 6996 km
RCS: 4.088 m2 (large)
Launch date: October 18, 1984
Source: Commonwealth of Independent States (former USSR) (CIS)
Launch site: PLESETSK MISSILE AND SPACE COMPLEX (PKMTR)

Note: This is a ROCKET BODY
Your satellite tracking list
Your tracking list is empty





NASA's NSSDC Master Catalog

Two Line Element Set (TLE):
1 15370U 84111B   16237.15758472  .00000069  00000-0  54831-5 0  9990
2 15370  82.5158 285.9317 0019813 317.0785  42.8883 14.83559930720138
Source of the keplerian elements: AFSPC

N2YO: 480